Time,TemperatureF,DewpointF,PressureIn,WindDirection,WindDirectionDegrees,WindSpeedMPH,WindSpeedGustMPH,Humidity,HourlyPrecipIn,Conditions,Clouds,dailyrainin,SoftwareType,DateUTC
2013-07-12 00:09:00,71.0,70.0,29.89,SSW,212,0.0,0.0,96,0.00,,,0.00,weatherlink.com 1.10,2013-07-12 04:09:00,
2013-07-12 00:24:00,71.0,70.0,29.89,SSW,212,0.0,0.0,96,0.00,,,0.00,weatherlink.com 1.10,2013-07-12 04:24:00,
2013-07-12 00:39:00,70.9,70.0,29.89,SSW,212,0.0,0.0,96,0.00,,,0.00,weatherlink.com 1.10,2013-07-12 04:39:00,
2013-07-12 00:54:00,70.8,70.0,29.90,SSW,212,0.0,0.0,97,0.00,,,0.00,weatherlink.com 1.10,2013-07-12 04:54:00,
2013-07-12 01:09:00,70.8,70.0,29.90,SSW,212,0.0,0.0,97,0.00,,,0.00,weatherlink.com 1.10,2013-07-12 05:09:00,
2013-07-12 01:24:00,70.9,70.0,29.90,SSW,212,0.0,0.0,97,0.00,,,0.00,weatherlink.com 1.10,2013-07-12 05:24:00,
2013-07-12 01:39:00,70.7,70.0,29.90,SSW,212,0.0,0.0,97,0.00,,,0.00,weatherlink.com 1.10,2013-07-12 05:39:00,
2013-07-12 01:54:00,70.5,70.0,29.90,SSW,212,0.0,0.0,97,0.00,,,0.00,weatherlink.com 1.10,2013-07-12 05:54:00,
2013-07-12 02:09:00,70.3,69.0,29.89,SSW,212,0.0,0.0,97,0.00,,,0.00,weatherlink.com 1.10,2013-07-12 06:09:00,
2013-07-12 02:24:00,70.3,70.0,29.89,WNW,292,0.0,0.0,98,0.00,,,0.00,weatherlink.com 1.10,2013-07-12 06:24:00,
2013-07-12 02:39:00,70.2,70.0,29.90,WNW,299,0.0,0.0,98,0.00,,,0.00,weatherlink.com 1.10,2013-07-12 06:39:00,
2013-07-12 02:54:00,70.1,70.0,29.89,WNW,299,0.0,0.0,98,0.00,,,0.00,weatherlink.com 1.10,2013-07-12 06:54:00,
2013-07-12 03:09:00,70.0,69.0,29.89,WNW,299,0.0,0.0,98,0.00,,,0.00,weatherlink.com 1.10,2013-07-12 07:09:00,
2013-07-12 03:24:00,69.7,69.0,29.89,WNW,299,0.0,0.0,98,0.00,,,0.00,weatherlink.com 1.10,2013-07-12 07:24:00,
2013-07-12 03:39:00,69.5,69.0,29.88,WNW,299,0.0,0.0,98,0.00,,,0.00,weatherlink.com 1.10,2013-07-12 07:39:00,
2013-07-12 03:54:00,69.2,69.0,29.89,WNW,299,0.0,1.0,98,0.00,,,0.00,weatherlink.com 1.10,2013-07-12 07:54:00,
2013-07-12 04:10:00,69.0,68.0,29.88,WNW,299,0.0,0.0,97,0.00,,,0.00,weatherlink.com 1.10,2013-07-12 08:10:00,
2013-07-12 04:25:00,68.9,68.0,29.88,WNW,299,0.0,0.0,98,0.00,,,0.00,weatherlink.com 1.10,2013-07-12 08:25:00,
2013-07-12 04:40:00,68.7,68.0,29.88,WNW,299,0.0,0.0,98,0.00,,,0.00,weatherlink.com 1.10,2013-07-12 08:40:00,
2013-07-12 04:55:00,68.5,68.0,29.89,WNW,299,0.0,0.0,98,0.00,,,0.00,weatherlink.com 1.10,2013-07-12 08:55:00,
2013-07-12 05:10:00,68.1,67.0,29.88,WNW,299,0.0,0.0,97,0.00,,,0.00,weatherlink.com 1.10,2013-07-12 09:10:00,
2013-07-12 05:25:00,67.9,67.0,29.88,WNW,299,0.0,0.0,98,0.00,,,0.00,weatherlink.com 1.10,2013-07-12 09:25:00,
2013-07-12 05:40:00,67.7,67.0,29.89,WNW,299,0.0,0.0,98,0.00,,,0.00,weatherlink.com 1.10,2013-07-12 09:40:00,
2013-07-12 05:55:00,67.7,67.0,29.89,WNW,299,0.0,0.0,98,0.00,,,0.00,weatherlink.com 1.10,2013-07-12 09:55:00,
2013-07-12 06:10:00,67.5,67.0,29.89,WNW,299,0.0,0.0,98,0.00,,,0.00,weatherlink.com 1.10,2013-07-12 10:10:00,
2013-07-12 06:25:00,67.4,67.0,29.90,WNW,299,0.0,0.0,98,0.00,,,0.00,weatherlink.com 1.10,2013-07-12 10:25:00,
2013-07-12 06:40:00,67.5,67.0,29.90,WNW,299,0.0,0.0,98,0.00,,,0.00,weatherlink.com 1.10,2013-07-12 10:40:00,
2013-07-12 06:55:00,67.9,68.0,29.90,WNW,299,0.0,0.0,99,0.00,,,0.00,weatherlink.com 1.10,2013-07-12 10:55:00,
2013-07-12 07:10:00,68.2,68.0,29.90,WNW,299,0.0,1.0,99,0.00,,,0.00,weatherlink.com 1.10,2013-07-12 11:10:00,
2013-07-12 07:25:00,68.2,68.0,29.90,WNW,299,0.0,1.0,99,0.00,,,0.00,weatherlink.com 1.10,2013-07-12 11:25:00,
2013-07-12 07:40:00,68.2,68.0,29.91,WNW,300,1.0,1.0,99,0.00,,,0.00,weatherlink.com 1.10,2013-07-12 11:40:00,
2013-07-12 07:55:00,68.0,68.0,29.91,WNW,300,0.0,2.0,99,0.00,,,0.00,weatherlink.com 1.10,2013-07-12 11:55:00,
2013-07-12 08:10:00,68.0,68.0,29.91,NNW,346,0.0,2.0,99,0.00,,,0.00,weatherlink.com 1.10,2013-07-12 12:10:00,
2013-07-12 08:25:00,68.0,68.0,29.92,NNW,342,0.0,1.0,99,0.00,,,0.00,weatherlink.com 1.10,2013-07-12 12:25:00,
2013-07-12 08:40:00,68.1,68.0,29.92,NNE,26,0.0,1.0,99,0.00,,,0.00,weatherlink.com 1.10,2013-07-12 12:40:00,
2013-07-12 08:55:00,68.4,68.0,29.93,NNE,20,0.0,1.0,99,0.00,,,0.00,weatherlink.com 1.10,2013-07-12 12:55:00,
2013-07-12 09:10:00,69.3,69.0,29.93,NW,308,0.0,0.0,99,0.00,,,0.00,weatherlink.com 1.10,2013-07-12 13:10:00,
2013-07-12 09:25:00,70.3,70.0,29.94,NNW,332,0.0,1.0,98,0.00,,,0.00,weatherlink.com 1.10,2013-07-12 13:25:00,
2013-07-12 09:40:00,71.3,70.0,29.94,NNE,32,0.0,2.0,96,0.00,,,0.00,weatherlink.com 1.10,2013-07-12 13:40:00,
2013-07-12 09:55:00,72.6,71.0,29.94,NNE,32,0.0,1.0,93,0.00,,,0.00,weatherlink.com 1.10,2013-07-12 13:55:00,
2013-07-12 10:10:00,74.2,72.0,29.94,NNW,330,0.0,2.0,91,0.00,,,0.00,weatherlink.com 1.10,2013-07-12 14:10:00,
2013-07-12 10:25:00,75.6,72.0,29.94,ENE,65,0.0,1.0,87,0.00,,,0.00,weatherlink.com 1.10,2013-07-12 14:25:00,
2013-07-12 10:40:00,76.1,72.0,29.94,WSW,256,0.0,3.0,86,0.00,,,0.00,weatherlink.com 1.10,2013-07-12 14:40:00,
2013-07-12 10:55:00,76.5,71.0,29.94,NNW,346,0.0,3.0,84,0.00,,,0.00,weatherlink.com 1.10,2013-07-12 14:55:00,
2013-07-12 11:11:00,75.5,70.0,29.94,NNW,347,1.0,5.0,84,0.00,,,0.00,weatherlink.com 1.10,2013-07-12 15:11:00,
2013-07-12 11:26:00,76.0,71.0,29.94,NW,309,0.0,5.0,84,0.00,,,0.00,weatherlink.com 1.10,2013-07-12 15:26:00,
2013-07-12 11:41:00,75.6,71.0,29.94,WNW,303,0.0,2.0,84,0.00,,,0.00,weatherlink.com 1.10,2013-07-12 15:41:00,
2013-07-12 11:56:00,76.7,72.0,29.94,NW,321,1.0,3.0,85,0.01,,,0.01,weatherlink.com 1.10,2013-07-12 15:56:00,
2013-07-12 12:11:00,77.6,72.0,29.94,NW,314,0.0,3.0,82,0.01,,,0.01,weatherlink.com 1.10,2013-07-12 16:11:00,
2013-07-12 12:26:00,76.8,72.0,29.94,WNW,300,1.0,3.0,85,0.01,,,0.01,weatherlink.com 1.10,2013-07-12 16:26:00,
2013-07-12 12:41:00,77.9,72.0,29.93,NW,307,0.0,2.0,82,0.01,,,0.01,weatherlink.com 1.10,2013-07-12 16:41:00,
2013-07-12 12:56:00,79.1,72.0,29.93,NNW,340,0.0,3.0,78,0.00,,,0.01,weatherlink.com 1.10,2013-07-12 16:56:00,
2013-07-12 13:11:00,78.8,71.0,29.93,NNW,330,0.0,2.0,78,0.00,,,0.01,weatherlink.com 1.10,2013-07-12 17:11:00,
2013-07-12 13:41:00,79.1,73.0,29.92,West,279,0.0,3.0,81,0.00,,,0.01,weatherlink.com 1.10,2013-07-12 17:41:00,
2013-07-12 14:11:00,80.3,72.0,29.92,ENE,59,0.0,1.0,76,0.00,,,0.01,weatherlink.com 1.10,2013-07-12 18:11:00,
2013-07-12 14:26:00,81.4,74.0,29.92,North,11,0.0,2.0,78,0.00,,,0.01,weatherlink.com 1.10,2013-07-12 18:26:00,
2013-07-12 14:41:00,82.6,71.0,29.92,WNW,291,0.0,2.0,68,0.00,,,0.01,weatherlink.com 1.10,2013-07-12 18:41:00,
2013-07-12 15:11:00,83.4,72.0,29.92,NW,321,0.0,3.0,69,0.00,,,0.01,weatherlink.com 1.10,2013-07-12 19:11:00,
2013-07-12 15:26:00,83.8,71.0,29.91,North,360,2.0,3.0,65,0.00,,,0.01,weatherlink.com 1.10,2013-07-12 19:26:00,
2013-07-12 15:41:00,83.6,70.0,29.90,NNE,24,0.0,2.0,63,0.00,,,0.01,weatherlink.com 1.10,2013-07-12 19:41:00,
2013-07-12 15:56:00,82.7,68.0,29.91,NNE,22,0.0,3.0,62,0.00,,,0.01,weatherlink.com 1.10,2013-07-12 19:56:00,
2013-07-12 16:11:00,82.1,70.0,29.90,NE,38,0.0,2.0,66,0.00,,,0.01,weatherlink.com 1.10,2013-07-12 20:11:00,
2013-07-12 16:26:00,83.0,69.0,29.90,WNW,296,0.0,2.0,63,0.00,,,0.01,weatherlink.com 1.10,2013-07-12 20:26:00,
2013-07-12 16:41:00,83.3,69.0,29.89,NW,313,3.0,3.0,63,0.00,,,0.01,weatherlink.com 1.10,2013-07-12 20:41:00,
2013-07-12 16:56:00,82.2,69.0,29.89,NNW,336,1.0,4.0,65,0.00,,,0.01,weatherlink.com 1.10,2013-07-12 20:56:00,
2013-07-12 17:11:00,82.8,67.0,29.89,West,277,3.0,5.0,60,0.00,,,0.01,weatherlink.com 1.10,2013-07-12 21:11:00,
2013-07-12 17:26:00,82.1,68.0,29.89,East,84,0.0,4.0,62,0.00,,,0.01,weatherlink.com 1.10,2013-07-12 21:26:00,
2013-07-12 17:41:00,81.4,69.0,29.89,NNE,30,0.0,1.0,65,0.00,,,0.01,weatherlink.com 1.10,2013-07-12 21:41:00,
2013-07-12 17:56:00,80.4,68.0,29.89,North,9,0.0,5.0,66,0.00,,,0.01,weatherlink.com 1.10,2013-07-12 21:56:00,
2013-07-12 18:11:00,80.4,69.0,29.90,NE,39,0.0,1.0,68,0.00,,,0.01,weatherlink.com 1.10,2013-07-12 22:11:00,
2013-07-12 18:26:00,79.6,69.0,29.90,North,360,0.0,1.0,69,0.00,,,0.01,weatherlink.com 1.10,2013-07-12 22:26:00,
2013-07-12 18:41:00,78.5,68.0,29.91,ESE,111,0.0,3.0,71,0.00,,,0.01,weatherlink.com 1.10,2013-07-12 22:41:00,
2013-07-12 18:56:00,77.6,68.0,29.90,NNW,330,0.0,1.0,71,0.00,,,0.01,weatherlink.com 1.10,2013-07-12 22:56:00,
2013-07-12 19:26:00,76.6,67.0,29.91,ENE,72,0.0,0.0,71,0.00,,,0.01,weatherlink.com 1.10,2013-07-12 23:26:00,
2013-07-12 19:41:00,76.1,66.0,29.91,WSW,256,0.0,2.0,72,0.00,,,0.01,weatherlink.com 1.10,2013-07-12 23:41:00,
2013-07-12 19:56:00,75.4,65.0,29.91,SSW,207,0.0,4.0,71,0.00,,,0.01,weatherlink.com 1.10,2013-07-12 23:56:00,
2013-07-12 20:26:00,73.8,65.0,29.92,WNW,302,0.0,1.0,75,0.00,,,0.01,weatherlink.com 1.10,2013-07-13 00:26:00,
2013-07-12 20:56:00,72.1,65.0,29.93,WNW,301,0.0,1.0,78,0.00,,,0.01,weatherlink.com 1.10,2013-07-13 00:56:00,
2013-07-12 21:11:00,71.3,65.0,29.93,WNW,301,0.0,0.0,79,0.00,,,0.01,weatherlink.com 1.10,2013-07-13 01:11:00,
2013-07-12 21:26:00,70.4,64.0,29.94,WNW,301,0.0,0.0,80,0.00,,,0.01,weatherlink.com 1.10,2013-07-13 01:26:00,
2013-07-12 21:41:00,69.8,64.0,29.94,West,265,0.0,0.0,83,0.00,,,0.01,weatherlink.com 1.10,2013-07-13 01:41:00,
2013-07-12 21:56:00,69.2,64.0,29.94,West,265,0.0,0.0,83,0.00,,,0.01,weatherlink.com 1.10,2013-07-13 01:56:00,
2013-07-12 22:11:00,68.9,64.0,29.95,West,265,0.0,0.0,84,0.00,,,0.01,weatherlink.com 1.10,2013-07-13 02:11:00,
2013-07-12 22:26:00,68.4,64.0,29.95,West,265,0.0,0.0,85,0.00,,,0.01,weatherlink.com 1.10,2013-07-13 02:26:00,
2013-07-12 22:56:00,67.5,63.0,29.95,West,265,0.0,0.0,85,0.00,,,0.01,weatherlink.com 1.10,2013-07-13 02:56:00,
2013-07-12 23:11:00,67.0,63.0,29.96,West,265,0.0,0.0,87,0.00,,,0.01,weatherlink.com 1.10,2013-07-13 03:11:00,
2013-07-12 23:26:00,66.7,62.0,29.96,WSW,244,0.0,0.0,86,0.00,,,0.01,weatherlink.com 1.10,2013-07-13 03:26:00,
2013-07-12 23:41:00,66.8,62.0,29.96,South,179,0.0,1.0,85,0.00,,,0.01,weatherlink.com 1.10,2013-07-13 03:41:00,